Location: Rounton
(54.4000°N, 1.3500°W)
Time: 18:33:26
(UTC+01:00)

X-37B - Visible Passes

Search period start: 17 August 2022 00:00
Search period end: 27 August 2022 00:00
Orbit: 328 x 343 km, 45.0° (Epoch: 12 August)

Date Brightness Start Highest point End Pass type
(mag) Time Alt. Az. Time Alt. Az. Time Alt. Az.
24 Aug 2.6 21:43:25 10° SSW 21:44:25 12° S 21:44:25 12° S visible
25 Aug 2.8 22:03:21 10° SSW 22:03:56 12° SSW 22:03:56 12° SSW visible
26 Aug 2.6 20:48:53 10° SSW 20:50:10 12° S 20:51:28 10° SE visible
